St. Joseph, KS

5:23 AM CDT on September 18, 2019 (GMT -0500)
Rosecrans Memorial

Weather History for KSTJ - July, 2019

Change the Weather History Date:

Thursday, July 18, 2019

  Actual Average Record
Temperature  
Mean Temperature 88 °F 77 °F  
Max Temperature 96 °F 87 °F 106 °F (1934)
Min Temperature 80 °F 67 °F 53 °F (2009)
Degree Days  
Heating Degree Days 0 0  
Month to date heating degree days 0 0  
Since 1 June heating degree days 1 8  
Since 1 July heating degree days 0 0  
Cooling Degree Days 23 12  
Month to date cooling degree days 281 214  
Year to date cooling degree days 675 594  
Since 1 June cooling degree days 574 481  
Growing Degree Days 38 (Base 50)    
Moisture  
Dew Point 74 °F    
Average Humidity 63    
Maximum Humidity 74    
Minimum Humidity 52    
Precipitation  
Precipitation 0.00 in 0.18 in 1.83 in (1971)
Month to date precipitation 0.22 2.89  
Year to date precipitation 21.49 20.02  
Sea Level Pressure  
Sea Level Pressure 29.75 in    
Wind  
Wind Speed 14 mph (SSW)    
Max Wind Speed 23 mph    
Max Gust Speed 31 mph    
Visibility 10 miles    
Events      
T = Trace of Precipitation, MM = Missing Value Source: NWS Daily Summary

Daily Weather History Graph

Daily Weather History Graph

Search for Another Location

Airport or City:

Astronomy

Jul. 18, 2019 Rise Set
Actual Time 6:06 AM CDT 8:45 PM CDT
Civil Twilight 5:34 AM CDT 9:16 PM CDT
Nautical Twilight 4:55 AM CDT 9:55 PM CDT
Astronomical Twilight 4:11 AM CDT 10:39 PM CDT
Moon 10:11 PM CDT 7:36 AM CDT
Length of Visible Light 15h 41m
Length of Day
14h 38m
Full, 97% of the Moon is Illuminated
Jul 18
Full
Jul 24
Last Quarter
Jul 31
New
Aug 7
First Quarter
Aug 15
Full

Hourly Weather History & Observations

Time (CDT) Temp. Heat Index Dew Point Humidity Pressure Visibility Wind Dir Wind Speed Gust Speed Precip Events Conditions
12:53 AM 84.9 °F 91.4 °F 73.0 °F 67% 29.81 in 10.0 mi South 15.0 mph 24.2 mph N/A   Clear
1:53 AM 84.0 °F 90.2 °F 73.0 °F 69% 29.79 in 10.0 mi South 16.1 mph 24.2 mph N/A   Clear
2:53 AM 82.9 °F 88.0 °F 72.0 °F 69% 29.78 in 10.0 mi SSW 13.8 mph 25.3 mph N/A   Clear
3:53 AM 82.0 °F 86.7 °F 72.0 °F 71% 29.79 in 10.0 mi SSW 15.0 mph - N/A   Clear
4:53 AM 81.0 °F 84.9 °F 71.1 °F 72% 29.78 in 10.0 mi SSW 13.8 mph 24.2 mph N/A   Clear
5:53 AM 81.0 °F 84.9 °F 71.1 °F 72% 29.77 in 10.0 mi South 16.1 mph 23.0 mph N/A   Clear
6:53 AM 80.1 °F 83.6 °F 71.1 °F 74% 29.79 in 10.0 mi South 10.4 mph - N/A   Clear
7:53 AM 81.0 °F 85.2 °F 72.0 °F 74% 29.81 in 10.0 mi SSW 6.9 mph - N/A   Clear
8:53 AM 82.9 °F 88.0 °F 72.0 °F 69% 29.81 in 10.0 mi SSW 11.5 mph - N/A   Clear
9:53 AM 86.0 °F 93.0 °F 73.0 °F 65% 29.79 in 10.0 mi SSW 11.5 mph 19.6 mph N/A   Clear
10:53 AM 88.0 °F 95.6 °F 73.0 °F 61% 29.78 in 10.0 mi SSW 16.1 mph - N/A   Clear
11:53 AM 90.0 °F 97.9 °F 73.0 °F 57% 29.77 in 10.0 mi SSW 15.0 mph 25.3 mph N/A   Clear
12:53 PM 91.9 °F 103.2 °F 75.0 °F 58% 29.76 in 10.0 mi South 13.8 mph - N/A   Clear
1:53 PM 93.0 °F 103.2 °F 73.9 °F 54% 29.74 in 10.0 mi SSW 17.3 mph 26.5 mph N/A   Clear
2:53 PM 93.9 °F 106.9 °F 75.9 °F 56% 29.72 in 10.0 mi South 17.3 mph 26.5 mph N/A   Clear
3:53 PM 93.9 °F 106.9 °F 75.9 °F 56% 29.70 in 10.0 mi South 16.1 mph 31.1 mph N/A   Clear
4:53 PM 95.0 °F 108.2 °F 75.9 °F 54% 29.69 in 10.0 mi South 13.8 mph 28.8 mph N/A   Clear
5:53 PM 95.0 °F 108.2 °F 75.9 °F 54% 29.68 in 10.0 mi South 15.0 mph 25.3 mph N/A   Clear
6:53 PM 93.9 °F 106.9 °F 75.9 °F 56% 29.69 in 10.0 mi South 13.8 mph - N/A   Clear
7:53 PM 91.0 °F 101.6 °F 75.0 °F 59% 29.70 in 10.0 mi South 12.7 mph - N/A   Clear
8:53 PM 89.1 °F 99.1 °F 75.0 °F 63% 29.71 in 10.0 mi South 11.5 mph - N/A   Clear
9:53 PM 89.1 °F 97.0 °F 73.0 °F 59% 29.73 in 10.0 mi South 12.7 mph - N/A   Clear
10:53 PM 87.1 °F 95.4 °F 73.9 °F 65% 29.73 in 10.0 mi South 13.8 mph - N/A   Clear
11:53 PM 86.0 °F 93.8 °F 73.9 °F 67% 29.75 in 10.0 mi South 16.1 mph 25.3 mph N/A   Clear